Simultaneous Nadir Overpasses (SNOs) Predictions

Prediction of SNOs between LANDSAT-8 and METOP-B Satellite Orbit:

Table of predicted SNOs for the next 14.0 days since TLE Epoch: 4/20/2019
Index Date (LANDSAT-8) Time (LANDSAT-8) Lat,Lon (LANDSAT-8) SZA (LANDSAT-8 ) Date (METOP-B) Time (METOP-B) Lat,Lon (METOP-B) SZA (METOP-B ) Distance(km) Time Diff (sec)
1 04/22/2019 06:29:15 -80.81, -62.18 109.58 04/22/2019 06:28:01 -80.91, -62.48 109.56 12.23 74
2 04/22/2019 07:18:30 81.10, 109.36 71.02 04/22/2019 07:18:30 81.09, 109.20 71.00 2.87 0
3 04/22/2019 08:07:56 -81.12, -82.68 108.95 04/22/2019 08:09:09 -81.12, -82.82 108.93 2.48 73
4 04/25/2019 02:03:18 -81.07, 7.72 109.96 04/25/2019 02:02:13 -81.07, 7.76 109.98 1.01 65
5 04/25/2019 02:52:43 81.09, 175.75 70.09 04/25/2019 02:52:52 81.10, 175.75 70.10 0.47 9
6 04/27/2019 21:37:31 -81.09, 74.46 110.80 04/27/2019 21:36:36 -81.08, 74.34 110.84 2.26 55
7 04/27/2019 22:26:56 81.11,-117.54 69.25 04/27/2019 22:27:15 81.10,-117.71 69.23 3.15 19
8 04/30/2019 17:11:45 -81.08, 140.81 111.68 04/30/2019 17:10:59 -81.09, 140.90 111.69 1.60 46
9 04/30/2019 18:01:10 81.10, -51.22 68.37 04/30/2019 18:01:38 81.11, -51.19 68.38 0.49 28
10 05/03/2019 12:45:58 -81.07,-152.87 112.53 05/03/2019 12:45:22 -81.08,-152.93 112.55 1.02 36




NCC Satellite Simultaneous Nadir Overpasses (SNOs) Prediction Service
